Flag for Portugal Weather past 2 weeks in Portimão, Portugal

Now
64 °F

Passing clouds.


Feels Like: 64 °F
Forecast: 61 / 71 °F
Wind: 5 mph from Northeast

Location: Faro / Aeroporto

Current Time: Sep 22, 2014 at 3:44:58 AM

Latest Report: Sep 22, 2014 at 3:00 AM


Visibility: N/A

Pressure: 29.98 "Hg

Humidity: 100%

Dew point: 64 °F

Location of PortimãoLocation

Historic Weather in Portimão — Graph

°F

Portimão temperature yesterday

Maximum temperature yesterday: 75 °F (at 11:00 AM)
Minimum temperature yesterday: 64 °F (at 3:30 AM)
Average temperature yesterday: 69 °F

Past Weeks' High & Low Weather Summary

 TemperatureHumidityPressure
High77 °F (Sep 7, 2:30 PM)100% (Sep 7, 4:00 AM)30.07 "Hg (Sep 7, 4:00 AM)
Low64 °F (Sep 9, 7:00 AM)61% (Sep 21, 11:30 AM)29.71 "Hg (Sep 16, 4:30 AM)
Average71 °F87%29.93 "Hg
* Reported Sep 7 2:00 AM — Sep 22 2:30 AM, Portimão, Weather by CustomWeather, © 2014

Note: Actual official high and low records may vary slightly from our data, if they occured in-between our weather recording intervals... More about our weather records

Advertising

Portimão weather history for previous 24 hours

 ConditionsComfort  
Time TempWeatherWind HumidityBarometerVisibility
2:30 AM
Sep 22
64 °FClear.2 mph100%30.01 "Hg10 mi
2:00 AM64 °FPassing clouds.1 mph94%30.01 "HgN/A
1:00 AM66 °FClear.2 mph94%30.01 "Hg10 mi
12:30 AM66 °FClear.1 mph94%30.01 "Hg10 mi
12:00 AM66 °FClear.3 mph94%30.01 "Hg10 mi
11:30 PM
Sep 21
68 °FClear.2 mph88%30.01 "Hg10 mi
11:00 PM66 °FClear.3 mph94%30.01 "Hg10 mi
10:30 PM68 °FClear.5 mph88%30.01 "Hg10 mi
10:00 PM66 °FClear.5 mph94%30.01 "Hg10 mi
9:00 PM68 °FPassing clouds.7 mph88%30.01 "HgN/A
8:30 PM68 °FClear.3 mph88%30.01 "Hg10 mi
8:00 PM68 °FPassing clouds.5 mph88%29.98 "HgN/A
7:00 PM72 °FPassing clouds.5 mph73%29.98 "HgN/A
6:30 PM72 °FPassing clouds.5 mph73%29.98 "HgN/A
6:00 PM73 °FPassing clouds.3 mph69%29.98 "HgN/A
5:30 PM72 °FPassing clouds.2 mph73%29.98 "HgN/A
5:00 PM70 °FSprinkles. Scattered clouds.5 mph78%29.98 "HgN/A
4:30 PM70 °FSprinkles. Scattered clouds.5 mph83%30.01 "HgN/A
4:00 PM70 °FSprinkles. Scattered clouds.6 mph83%30.01 "HgN/A
3:00 PM70 °FThunderstorms. Scattered clouds.5 mph78%30.01 "HgN/A
2:30 PM72 °FScattered clouds.3 mph78%30.01 "HgN/A
2:00 PM70 °FScattered clouds.5 mph88%30.01 "HgN/A
1:30 PM72 °FThunderstorms. Scattered clouds.8 mph83%30.01 "HgN/A
1:00 PM73 °FPassing clouds.6 mph74%30.01 "HgN/A
12:30 PM75 °FPassing clouds.7 mph69%30.04 "HgN/A
12:00 PM75 °FPassing clouds.8 mph65%30.04 "HgN/A
11:30 AM75 °FPassing clouds.7 mph61%30.04 "HgN/A
11:00 AM75 °FPassing clouds.5 mph65%30.04 "HgN/A
10:00 AM73 °FSunny.2 mph65%30.01 "Hg10 mi
9:00 AM70 °FPassing clouds.3 mph78%30.01 "HgN/A
8:30 AM68 °FSunny.3 mph78%29.98 "Hg10 mi
8:00 AM66 °FClear.5 mph83%29.98 "Hg10 mi
7:30 AM64 °FClear.5 mph88%29.98 "Hg10 mi
7:00 AM64 °FClear.5 mph88%29.98 "Hg10 mi
6:30 AM64 °FClear.3 mph88%29.98 "Hg10 mi
6:00 AM64 °FClear.3 mph88%29.98 "Hg10 mi
5:30 AM64 °FClear.3 mph94%29.98 "Hg10 mi
5:00 AM66 °FClear.3 mph88%29.98 "Hg10 mi
4:30 AM66 °FClear.7 mph88%29.98 "Hg10 mi
4:00 AM66 °FPassing clouds.7 mph88%29.98 "HgN/A
3:30 AM64 °FPassing clouds.6 mph88%30.01 "HgN/A
3:00 AM66 °FClear.6 mph88%30.01 "Hg10 mi
Weather by CustomWeather, © 2014

See weather overviewHow to use our weather pages